Flag for Germany Weather past 2 weeks in Bergheim, North Rhine-Westphalia, Germany

Now
54 °F

Partly sunny.


Feels Like: 53 °F
Forecast: 47 / 69 °F
Wind: 3 mph from West

Location: Noervenich

Current Time: May 23, 2015 at 8:59:26 AM

Latest Report: May 23, 2015 at 7:20 AM


Visibility: N/A

Pressure: 30.18 "Hg

Humidity: 77%

Dew point: 46 °F

Location of BergheimLocation

Historic Weather in Bergheim — Graph

°F

Bergheim temperature yesterday

Maximum temperature yesterday: 68 °F (at 5:20 PM)
Minimum temperature yesterday: 46 °F (at 6:20 AM)
Average temperature yesterday: 57 °F

Past Weeks' High & Low Weather Summary

 TemperatureHumidityPressure
High81 °F (May 11, 4:20 PM)100% (May 15, 1:20 AM)30.33 "Hg (May 15, 1:20 AM)
Low39 °F (May 21, 5:20 AM)30% (May 11, 4:20 PM)29.65 "Hg (May 18, 7:20 PM)
Average56 °F66%30.07 "Hg
* Reported May 8 7:20 AM — May 23 7:20 AM, Bergheim, Weather by CustomWeather, © 2015

Note: Actual official high and low records may vary slightly from our data, if they occured in-between our weather recording intervals... More about our weather records

Advertising

Bergheim weather history for previous 24 hours

 ConditionsComfort  
Time TempWeatherWind HumidityBarometerVisibility
7:20 AM
Sat, May 23
54 °FPartly sunny.3 mph77%30.18 "HgN/A
6:20 AM52 °FPassing clouds.3 mph82%30.15 "HgN/A
5:20 AM50 °FPassing clouds.5 mph82%30.15 "HgN/A
4:20 AM50 °FPassing clouds.6 mph82%30.15 "HgN/A
3:20 AM52 °FPassing clouds.6 mph82%30.18 "HgN/A
2:20 AM54 °FPassing clouds.3 mph77%30.18 "HgN/A
1:20 AM55 °FCool.5 mph72%30.21 "HgN/A
12:20 AM52 °FPassing clouds.3 mph77%30.21 "HgN/A
11:20 PM
Fri, May 22
54 °FPassing clouds.3 mph67%30.21 "HgN/A
10:20 PM55 °FPassing clouds.1 mph67%30.21 "HgN/A
9:20 PM59 °FScattered clouds.2 mph59%30.18 "HgN/A
8:20 PM64 °FScattered clouds.2 mph46%30.18 "HgN/A
7:20 PM66 °FMild.5 mph40%30.21 "HgN/A
6:20 PM66 °FMild.2 mph40%30.21 "HgN/A
5:20 PM68 °FMild.3 mph40%30.21 "HgN/A
4:20 PM66 °FMild.2 mph40%30.24 "HgN/A
3:20 PM64 °FMild.3 mph43%30.24 "HgN/A
2:20 PM64 °FMild.2 mph40%30.27 "HgN/A
1:20 PM63 °FMild.2 mph45%30.27 "HgN/A
12:20 PM61 °FPartly sunny.2 mph48%30.30 "HgN/A
11:20 AM61 °FScattered clouds.3 mph52%30.33 "HgN/A
10:20 AM59 °FPartly sunny.3 mph55%30.33 "HgN/A
9:20 AM57 °FPartly sunny.2 mph59%30.33 "HgN/A
8:20 AM54 °FPartly sunny.No wind67%30.33 "HgN/A
Weather by CustomWeather, © 2015

See weather overviewHow to use our weather pages